DW5683 Weather Reports


time (UTC)temp
F
wind
direction
speed
knots
gust
knots
rain 1hr
in
rain 24hr
in
rain mn
in
humidity
%
barometer
mb
20260510200032 81 188 0.0 3.5 0.00 0.00 0.00 54 1013.2
20260510194537 81 0 0.0 3.5 0.00 0.00 0.00 54 1013.2
20260510193037 80 188 0.9 2.6 0.00 0.00 0.00 58 1013.3
20260510191535 79 188 0.0 3.5 0.00 0.00 0.00 58 1013.5
20260510190037 80 188 0.9 3.5 0.00 0.00 0.00 55 1013.6
20260510184532 78 0 0.0 4.3 0.00 0.00 0.00 59 1013.7
20260510183041 78 188 0.9 5.2 0.00 0.00 0.00 59 1013.7
20260510181600 77 187 0.9 4.3 0.00 0.00 0.00 59 1013.6
20260510180058 76 187 1.7 4.3 0.00 0.00 0.00 60 1013.5
20260510174536 75 185 0.0 3.5 0.00 0.00 0.00 58 1013.5
20260510173037 74 185 0.9 4.3 0.00 0.00 0.00 58 1013.5
20260510171546 74 184 0.9 5.2 0.00 0.00 0.00 61 1013.5
20260510170038 73 0 0.9 4.3 0.00 0.00 0.00 61 1013.4
20260510164536 72 182 0.9 5.2 0.00 0.00 0.00 64 1013.4
20260510163037 70 0 0.9 6.1 0.00 0.00 0.00 64 1013.3
20260510161534 69 0 0.0 3.5 0.00 0.00 0.00 67 1013.3
20260510160041 66 0 0.0 4.3 0.00 0.00 0.00 72 1013.2
20260510154537 65 0 1.7 4.3 0.00 0.00 0.00 71 1013.2
20260510153037 65 200 1.7 4.3 0.00 0.00 0.00 71 1013.2
20260510151541 63 0 0.9 3.5 0.00 0.00 0.00 74 1013.1
20260510150047 62 205 0.9 3.5 0.00 0.00 0.00 76 1013.1
20260510144538 61 215 0.0 3.5 0.00 0.00 0.00 78 1013.0
20260510143039 59 215 0.0 2.6 0.00 0.00 0.00 82 1013.0
20260510141541 57 0 0.9 1.7 0.00 0.00 0.00 84 1012.9
20260510140038 57 0 0.0 4.3 0.00 0.00 0.00 84 1012.7
20260510134537 57 219 0.9 3.5 0.00 0.00 0.00 85 1012.4
20260510133036 57 225 0.9 3.5 0.00 0.00 0.00 86 1012.4
20260510131534 56 0 0.0 0.0 0.00 0.00 0.00 86 1012.2
20260510130041 56 0 0.0 0.0 0.00 0.00 0.00 86 1012.1
20260510124539 56 0 0.0 0.9 0.00 0.00 0.00 85 1012.1
20260510123037 56 0 0.0 2.6 0.00 0.00 0.00 85 1012.2
20260510121537 57 0 0.0 0.0 0.00 0.00 0.00 85 1012.1
20260510120037 57 0 0.0 0.0 0.00 0.00 0.00 84 1012.2
20260510114537 57 0 0.0 0.0 0.00 0.00 0.00 84 1012.0
20260510113038 58 0 0.0 0.9 0.00 0.00 0.00 84 1012.0
20260510111539 58 0 0.0 0.9 0.00 0.00 0.00 82 1011.9
20260510110042 59 0 0.0 0.0 0.00 0.00 0.00 82 1011.9
20260510104537 59 0 0.0 2.6 0.00 0.00 0.00 81 1011.7
20260510103038 60 0 0.0 2.6 0.00 0.00 0.00 81 1011.7
20260510101534 60 0 0.0 1.7 0.00 0.00 0.00 80 1011.8
20260510100044 60 0 0.0 2.6 0.00 0.00 0.00 80 1011.7
20260510094547 60 0 0.0 0.0 0.00 0.00 0.00 81 1011.7
20260510093037 60 0 0.0 0.9 0.00 0.00 0.00 81 1011.5
20260510091541 60 0 0.0 0.0 0.00 0.00 0.00 82 1011.6
20260510090036 61 0 0.0 0.0 0.00 0.00 0.00 84 1011.5
20260510084535 61 0 0.0 0.0 0.00 0.00 0.00 83 1011.2
20260510083051 62 0 0.0 0.0 0.00 0.00 0.00 83 1011.3
20260510081541 62 0 0.0 0.0 0.00 0.00 0.00 82 1011.3
20260510080038 63 0 0.0 0.0 0.00 0.00 0.00 80 1011.4
20260510074537 64 0 0.0 0.0 0.00 0.00 0.00 78 1011.4
20260510073043 65 0 0.0 1.7 0.00 0.00 0.00 75 1011.6
20260510071540 65 0 0.0 0.0 0.00 0.00 0.00 75 1011.5
20260510070043 66 0 0.0 1.7 0.00 0.00 0.00 74 1011.5
20260510064540 66 0 0.0 0.0 0.00 0.00 0.00 74 1011.5
20260510063038 67 0 0.0 0.0 0.00 0.00 0.00 76 1011.4
20260510061537 68 0 0.0 0.0 0.00 0.00 0.00 76 1011.4
20260510060042 69 0 0.0 0.0 0.00 0.00 0.00 75 1011.4
20260510054539 69 0 0.0 0.0 0.00 0.00 0.00 73 1011.4
20260510053034 70 0 0.0 3.5 0.00 0.00 0.00 73 1011.3
20260510051539 71 0 0.0 0.0 0.00 0.00 0.00 71 1011.3
20260510050039 71 0 0.0 0.0 0.00 0.00 0.00 69 1011.2
20260510044536 72 0 0.0 1.7 0.00 0.00 0.00 69 1011.1
20260510043035 73 0 0.0 1.7 0.00 0.00 0.00 68 1010.9
20260510041540 74 0 0.0 2.6 0.00 0.00 0.00 66 1010.9
20260510040035 75 0 0.0 0.0 0.00 0.00 0.00 65 1010.7
20260510034538 76 0 0.0 2.6 0.00 0.00 0.00 63 1010.5
20260510033038 78 0 0.0 1.7 0.00 0.00 0.00 60 1010.3
20260510031537 79 0 0.0 0.9 0.00 0.00 0.00 57 1010.2
20260510030049 81 225 0.0 4.3 0.00 0.00 0.00 54 1010.0
20260510024535 83 0 1.7 5.2 0.00 0.00 0.00 52 1009.9
20260510023034 84 226 0.0 2.6 0.00 0.00 0.00 48 1009.9
20260510021540 85 0 0.0 2.6 0.00 0.00 0.00 45 1009.7
20260510020037 85 226 0.9 3.5 0.00 0.00 0.00 45 1009.9
20260510014536 86 0 0.9 3.5 0.00 0.00 0.00 44 1009.8
20260510013040 86 226 0.0 4.3 0.00 0.00 0.00 44 1009.9
20260510011546 87 226 0.0 4.3 0.00 0.00 0.00 44 1010.0
20260510010038 87 227 0.0 4.3 0.00 0.00 0.00 44 1010.0
20260510004537 87 0 0.0 3.5 0.00 0.00 0.00 43 1010.2
20260510003041 87 0 0.9 3.5 0.00 0.00 0.00 45 1010.1
20260510001537 87 0 0.0 4.3 0.00 0.00 0.00 45 1010.1
20260510000037 87 0 0.9 3.5 0.00 0.00 0.00 41 1010.4
20260509234539 88 230 0.9 4.3 0.00 0.00 0.00 44 1010.4
20260509233038 87 0 0.0 3.5 0.00 0.00 0.00 44 1010.6
20260509231542 87 230 0.0 2.6 0.00 0.00 0.00 44 1010.6
20260509230040 88 0 0.0 3.5 0.00 0.00 0.00 43 1010.7
20260509224537 88 230 1.7 4.3 0.00 0.00 0.00 44 1010.9
20260509223036 87 230 0.0 3.5 0.00 0.00 0.00 46 1011.0
20260509221535 87 230 1.7 6.1 0.00 0.00 0.00 48 1011.3
20260509220041 86 230 0.0 5.2 0.00 0.00 0.00 46 1011.4
20260509214541 87 0 0.0 7.8 0.00 0.00 0.00 45 1011.6
20260509213038 86 234 2.6 6.1 0.00 0.00 0.00 47 1011.7
20260509211537 86 0 0.0 4.3 0.00 0.00 0.00 47 1011.9
20260509210044 85 0 0.0 4.3 0.00 0.00 0.00 47 1012.0
20260509204541 86 231 0.0 4.3 0.00 0.00 0.00 50 1012.1
20260509203042 85 229 0.0 5.2 0.00 0.00 0.00 49 1012.3
20260509201537 83 0 0.0 3.5 0.00 0.00 0.00 52 1012.4